contact:dominique.lefevre@mio.osupytheas.fr, maurice.libes@osupytheas.fr, didier.mallarino@osupytheas.fr
Project:EMSO http://www.emso-fr.org/EMSO-France
Depth: 2436.0 m
Title:EMSO Ligure Ouest : Data MII capteur AQUADOPP
Date,Latitude,Longitude,X_East,Y_North,Z_Up,Amplitude_X,Amplitude_Y,Amplitude_Z,Batterie,SoundSpeed,Heading,Pitch,Roll,Pressure,TIS,Speed,Direction
, degrees North, degrees East, m.s-1, m.s-1,m.s-1, 1, 1, 1, Volt, m.s-1, degree, degree, degree, dbar, degree_C, m.s-1, degree
2020-04-10T00:04:03,42.805,6.029,-0.007,-0.003,-0.055,103.0,107.0,101.0,13.3,1505.3,324.9,-0.7,1.8,2470.311,13.31,0.007,246.8
2020-04-10T00:07:02,42.805,6.029,-0.042,0.025,-0.017,103.0,106.0,100.0,13.3,1505.3,326.4,-0.8,1.9,2470.302,13.32,0.048,300.8
2020-04-10T00:10:02,42.805,6.029,-0.014,0.014,-0.024,103.0,107.0,100.0,13.3,1505.3,323.8,-0.7,1.8,2470.271,13.32,0.019,315.0
2020-04-10T00:13:02,42.805,6.029,-0.019,0.006,-0.041,104.0,107.0,101.0,13.4,1505.3,325.1,-0.7,1.8,2470.261,13.33,0.019,287.5
2020-04-10T00:16:02,42.805,6.029,-0.031,-0.001,-0.062,102.0,107.0,100.0,13.4,1505.3,323.7,-0.7,1.8,2470.246,13.33,0.031,268.2
2020-04-10T00:19:02,42.805,6.029,-0.003,0.024,-0.022,102.0,104.0,101.0,13.4,1505.3,324.6,-0.7,1.8,2470.249,13.33,0.024,352.9
2020-04-10T00:22:02,42.805,6.029,0.007,0.011,-0.041,102.0,107.0,101.0,13.4,1505.3,328.4,-0.7,1.8,2470.263,13.33,0.013,32.5
2020-04-10T00:25:02,42.805,6.029,-0.003,0.01,-0.031,103.0,106.0,101.0,13.4,1505.3,325.3,-0.7,1.8,2470.227,13.33,0.01,343.3
2020-04-10T00:28:02,42.805,6.029,-0.032,0.008,-0.041,103.0,106.0,101.0,13.4,1505.3,327.2,-0.7,1.8,2470.254,13.33,0.032,284.0
2020-04-10T00:31:02,42.805,6.029,-0.046,0.017,-0.049,101.0,107.0,102.0,13.4,1505.3,323.4,-0.7,1.9,2470.288,13.33,0.049,290.3
2020-04-10T00:34:02,42.805,6.029,-0.018,0.005,-0.037,103.0,106.0,100.0,13.3,1505.3,326.5,-0.7,1.8,2470.234,13.33,0.018,285.5
2020-04-10T00:37:02,42.805,6.029,0.007,0.02,-0.029,103.0,106.0,102.0,13.4,1505.3,328.2,-0.7,1.8,2470.222,13.33,0.021,19.3
2020-04-10T00:40:02,42.805,6.029,-0.026,0.01,-0.031,104.0,104.0,102.0,13.4,1505.3,327.4,-0.7,1.8,2470.216,13.33,0.027,291.0
2020-04-10T00:43:02,42.805,6.029,-0.024,0.03,-0.078,103.0,105.0,102.0,13.3,1505.3,326.8,-0.7,1.8,2470.224,13.33,0.038,321.3
2020-04-10T00:46:02,42.805,6.029,-0.04,0.002,-0.078,104.0,106.0,101.0,13.4,1505.3,323.2,-0.7,1.9,2470.208,13.33,0.04,272.9
2020-04-10T00:49:02,42.805,6.029,-0.03,0.017,-0.035,103.0,105.0,100.0,13.4,1505.3,327.6,-0.7,1.8,2470.202,13.33,0.034,299.5
2020-04-10T00:52:02,42.805,6.029,0.01,0.002,-0.031,103.0,105.0,100.0,13.4,1505.3,326.5,-0.7,1.8,2470.173,13.33,0.01,78.7
2020-04-10T00:55:02,42.805,6.029,-0.01,0.021,-0.026,104.0,106.0,101.0,13.4,1505.3,326.7,-0.7,1.8,2470.207,13.33,0.023,334.5
2020-04-10T00:58:02,42.805,6.029,-0.006,-0.005,-0.03,103.0,106.0,100.0,13.4,1505.3,326.9,-0.7,1.8,2470.196,13.33,0.007,230.2
2020-04-10T01:04:02,42.805,6.029,-0.011,0.042,-0.048,105.0,108.0,102.0,13.4,1505.3,327.8,-0.7,1.8,2470.217,13.31,0.043,345.3
2020-04-10T01:07:03,42.805,6.029,-0.008,0.01,-0.02,105.0,108.0,101.0,13.4,1505.3,324.1,-0.7,1.8,2470.237,13.31,0.012,321.3
2020-04-10T01:10:02,42.805,6.029,0.018,0.011,-0.002,101.0,107.0,102.0,13.4,1505.3,325.3,-0.7,1.8,2470.22,13.32,0.021,58.6
2020-04-10T01:13:02,42.805,6.029,-0.005,0.023,-0.036,103.0,105.0,102.0,13.4,1505.3,327.2,-0.7,1.8,2470.196,13.32,0.023,347.7
2020-04-10T01:16:02,42.805,6.029,-0.014,0.011,-0.019,104.0,105.0,101.0,13.4,1505.3,327.9,-0.7,1.9,2470.224,13.33,0.017,308.2
2020-04-10T01:19:02,42.805,6.029,-0.025,0.018,-0.012,103.0,105.0,100.0,13.4,1505.3,327.5,-0.7,1.8,2470.214,13.33,0.03,305.8
2020-04-10T01:22:02,42.805,6.029,-0.017,0.022,-0.039,104.0,103.0,102.0,13.3,1505.3,327.0,-0.7,1.8,2470.182,13.33,0.027,322.3
2020-04-10T01:25:02,42.805,6.029,-0.032,0.008,-0.024,103.0,107.0,101.0,13.4,1505.3,326.9,-0.7,1.8,2470.171,13.33,0.032,284.0
2020-04-10T01:28:02,42.805,6.029,-0.021,0.011,-0.044,103.0,107.0,101.0,13.3,1505.3,328.0,-0.7,1.8,2470.2,13.33,0.023,297.6
2020-04-10T01:31:02,42.805,6.029,-0.018,0.024,-0.036,103.0,106.0,101.0,13.4,1505.3,327.7,-0.7,1.9,2470.194,13.33,0.03,323.1
2020-04-10T01:34:02,42.805,6.029,-0.016,0.007,-0.073,103.0,106.0,102.0,13.4,1505.3,328.0,-0.7,1.8,2470.18,13.33,0.017,293.6
2020-04-10T01:37:02,42.805,6.029,-0.021,0.0,-0.057,103.0,108.0,102.0,13.4,1505.3,325.4,-0.7,1.8,2470.186,13.33,0.021,270.0
2020-04-10T01:40:02,42.805,6.029,-0.022,0.0,-0.053,102.0,107.0,100.0,13.3,1505.3,324.2,-0.7,1.8,2470.208,13.33,0.022,270.0
2020-04-10T01:43:02,42.805,6.029,-0.012,0.015,-0.028,102.0,107.0,101.0,13.3,1505.3,325.6,-0.7,1.8,2470.23,13.33,0.019,321.3
2020-04-10T01:46:02,42.805,6.029,-0.03,0.02,-0.024,104.0,106.0,101.0,13.4,1505.3,326.8,-0.8,1.8,2470.17,13.33,0.036,303.7
2020-04-10T01:49:02,42.805,6.029,-0.01,-0.001,-0.015,103.0,107.0,101.0,13.3,1505.3,324.4,-0.7,1.8,2470.203,13.33,0.01,264.3
2020-04-10T01:52:02,42.805,6.029,-0.021,0.006,-0.039,102.0,106.0,101.0,13.4,1505.3,327.3,-0.7,1.8,2470.186,13.33,0.021,285.9
2020-04-10T01:55:02,42.805,6.029,-0.021,0.018,-0.068,103.0,104.0,101.0,13.4,1505.3,324.3,-0.7,1.8,2470.126,13.33,0.027,310.6
2020-04-10T01:58:02,42.805,6.029,-0.006,0.001,0.004,102.0,106.0,101.0,13.4,1505.3,326.4,-0.7,1.8,2470.21,13.33,0.006,279.5
2020-04-10T02:04:02,42.805,6.029,-0.003,0.0,-0.033,102.0,105.0,101.0,13.4,1505.3,328.8,-0.7,1.9,2470.182,13.31,0.003,270.0
2020-04-10T02:07:02,42.805,6.029,-0.048,0.011,-0.059,102.0,105.0,100.0,13.3,1505.3,324.3,-0.7,1.8,2470.212,13.31,0.049,282.9
2020-04-10T02:10:02,42.805,6.029,-0.059,0.013,-0.061,103.0,105.0,100.0,13.4,1505.3,324.7,-0.7,1.8,2470.176,13.32,0.06,282.4
2020-04-10T02:13:02,42.805,6.029,0.022,0.008,-0.021,101.0,105.0,101.0,13.3,1505.3,323.3,-0.7,1.9,2470.205,13.32,0.023,70.0
2020-04-10T02:16:02,42.805,6.029,0.015,0.015,-0.025,102.0,105.0,100.0,13.3,1505.3,327.9,-0.7,1.9,2470.206,13.32,0.021,45.0
2020-04-10T02:19:02,42.805,6.029,-0.012,0.027,-0.038,104.0,104.0,100.0,13.4,1505.3,325.7,-0.7,1.8,2470.155,13.32,0.029,336.0
2020-04-10T02:22:02,42.805,6.029,-0.012,0.001,-0.032,101.0,105.0,101.0,13.3,1505.3,327.5,-0.7,1.8,2470.146,13.33,0.012,274.8
2020-04-10T02:25:02,42.805,6.029,-0.019,0.029,-0.023,103.0,106.0,100.0,13.4,1505.3,325.2,-0.7,1.8,2470.124,13.33,0.034,326.8
2020-04-10T02:28:02,42.805,6.029,-0.006,0.028,-0.02,101.0,104.0,101.0,13.4,1505.3,323.7,-0.7,1.8,2470.154,13.33,0.028,347.9
2020-04-10T02:31:02,42.805,6.029,0.013,-0.004,-0.021,102.0,105.0,100.0,13.4,1505.3,327.4,-0.7,1.8,2470.18,13.33,0.013,107.1
2020-04-10T02:34:02,42.805,6.029,0.004,0.014,-0.038,105.0,106.0,100.0,13.3,1505.3,326.8,-0.7,1.8,2470.14,13.33,0.014,15.9
2020-04-10T02:37:02,42.805,6.029,0.0,-0.004,-0.055,102.0,105.0,101.0,13.4,1505.3,327.6,-0.7,1.8,2470.11,13.33,0.004,180.0
2020-04-10T02:40:02,42.805,6.029,-0.007,0.002,-0.052,104.0,106.0,101.0,13.3,1505.3,325.5,-0.7,1.8,2470.178,13.33,0.007,285.9
2020-04-10T02:43:02,42.805,6.029,-0.032,-0.003,-0.059,103.0,104.0,102.0,13.3,1505.3,328.0,-0.7,1.8,2470.159,13.33,0.032,264.6
2020-04-10T02:46:02,42.805,6.029,0.018,-0.01,-0.029,102.0,108.0,100.0,13.4,1505.3,326.4,-0.7,1.8,2470.142,13.33,0.02,119.1
2020-04-10T02:49:02,42.805,6.029,-0.033,-0.001,-0.072,103.0,105.0,100.0,13.4,1505.3,327.3,-0.7,1.8,2470.181,13.33,0.033,268.3
2020-04-10T02:52:02,42.805,6.029,-0.011,-0.007,-0.031,103.0,107.0,100.0,13.4,1505.3,325.5,-0.7,1.8,2470.161,13.33,0.013,237.5
2020-04-10T02:55:02,42.805,6.029,-0.017,0.02,-0.025,103.0,106.0,100.0,13.3,1505.3,326.4,-0.7,1.8,2470.153,13.33,0.026,319.6
2020-04-10T02:58:02,42.805,6.029,-0.02,0.009,-0.031,103.0,105.0,100.0,13.4,1505.3,325.3,-0.7,1.8,2470.155,13.33,0.021,294.2
2020-04-10T03:04:02,42.805,6.029,0.006,-0.007,-0.032,102.0,105.0,100.0,13.3,1505.3,328.4,-0.7,1.8,2470.217,13.31,0.009,139.4
2020-04-10T03:07:02,42.805,6.029,-0.022,0.018,-0.046,103.0,105.0,100.0,13.4,1505.3,327.4,-0.7,1.8,2470.161,13.31,0.028,309.3
2020-04-10T03:10:02,42.805,6.029,-0.023,0.01,-0.06,102.0,104.0,100.0,13.4,1505.3,327.9,-0.7,1.8,2470.166,13.32,0.025,293.5
2020-04-10T03:13:02,42.805,6.029,-0.01,0.011,-0.048,103.0,104.0,100.0,13.4,1505.3,326.3,-0.7,1.8,2470.134,13.32,0.014,317.7
2020-04-10T03:16:02,42.805,6.029,-0.023,0.02,-0.061,103.0,106.0,100.0,13.4,1505.3,326.9,-0.7,1.8,2470.149,13.32,0.03,311.0
2020-04-10T03:19:02,42.805,6.029,-0.022,-0.008,-0.053,103.0,103.0,100.0,13.3,1505.3,323.5,-0.7,1.8,2470.164,13.33,0.023,250.0
2020-04-10T03:22:02,42.805,6.029,-0.006,0.004,-0.067,101.0,105.0,101.0,13.4,1505.3,324.1,-0.7,1.8,2470.153,13.33,0.007,303.7
2020-04-10T03:25:02,42.805,6.029,-0.017,-0.003,-0.05,101.0,104.0,100.0,13.3,1505.3,323.0,-0.7,1.8,2470.169,13.33,0.017,260.0
2020-04-10T03:28:02,42.805,6.029,-0.013,0.015,-0.046,103.0,104.0,100.0,13.4,1505.3,325.7,-0.7,1.8,2470.144,13.33,0.019,319.1
2020-04-10T03:31:02,42.805,6.029,-0.022,-0.004,-0.049,103.0,105.0,99.0,13.4,1505.3,325.4,-0.7,1.8,2470.145,13.33,0.022,259.7
2020-04-10T03:34:02,42.805,6.029,-0.003,-0.006,-0.054,103.0,104.0,99.0,13.4,1505.3,324.3,-0.7,1.8,2470.123,13.33,0.006,206.6
2020-04-10T03:37:02,42.805,6.029,-0.04,0.0,-0.051,103.0,107.0,100.0,13.4,1505.3,327.1,-0.7,1.8,2470.171,13.33,0.04,270.0
2020-04-10T03:40:02,42.805,6.029,0.015,0.01,-0.045,101.0,105.0,101.0,13.3,1505.3,327.8,-0.7,1.8,2470.162,13.33,0.018,56.3
2020-04-10T03:43:03,42.805,6.029,0.002,-0.004,-0.032,104.0,106.0,101.0,13.4,1505.3,328.3,-0.7,1.8,2470.138,13.33,0.004,153.4
2020-04-10T03:46:02,42.805,6.029,-0.024,-0.002,-0.052,103.0,107.0,101.0,13.4,1505.3,328.6,-0.7,1.8,2470.211,13.33,0.024,265.2
2020-04-10T03:49:02,42.805,6.029,-0.005,0.016,-0.026,103.0,104.0,101.0,13.4,1505.3,324.9,-0.7,1.9,2470.147,13.33,0.016,342.6
2020-04-10T03:52:02,42.805,6.029,-0.015,0.0,-0.062,103.0,103.0,101.0,13.4,1505.3,324.6,-0.7,1.8,2470.126,13.33,0.015,270.0
2020-04-10T03:55:02,42.805,6.029,0.01,0.005,-0.033,103.0,104.0,100.0,13.4,1505.3,325.8,-0.7,1.8,2470.14,13.33,0.011,63.4
2020-04-10T03:58:02,42.805,6.029,-0.022,0.013,-0.048,102.0,104.0,100.0,13.4,1505.3,326.0,-0.7,1.8,2470.149,13.33,0.025,300.6
2020-04-10T04:04:02,42.805,6.029,-0.04,0.0,-0.057,103.0,105.0,100.0,13.3,1505.3,325.0,-0.7,1.8,2470.168,13.31,0.04,270.0
2020-04-10T04:07:02,42.805,6.029,-0.006,-0.004,-0.026,103.0,105.0,101.0,13.4,1505.3,327.3,-0.7,1.8,2470.163,13.31,0.007,236.3
2020-04-10T04:10:03,42.805,6.029,-0.005,0.026,-0.01,104.0,107.0,100.0,13.4,1505.3,326.9,-0.7,1.8,2470.197,13.32,0.026,349.1
2020-04-10T04:13:02,42.805,6.029,-0.046,0.014,-0.084,102.0,106.0,100.0,13.4,1505.3,323.5,-0.7,1.8,2470.187,13.32,0.048,286.9
2020-04-10T04:16:02,42.805,6.029,-0.017,-0.005,-0.053,102.0,105.0,101.0,13.4,1505.3,328.3,-0.7,1.8,2470.214,13.32,0.017,253.6
2020-04-10T04:19:02,42.805,6.029,-0.046,-0.001,-0.073,102.0,105.0,100.0,13.3,1505.3,327.5,-0.7,1.8,2470.2,13.32,0.046,268.8
2020-04-10T04:22:02,42.805,6.029,0.001,0.0,-0.024,104.0,104.0,101.0,13.3,1505.3,325.8,-0.8,1.8,2470.166,13.33,0.001,90.0
2020-04-10T04:25:02,42.805,6.029,-0.018,0.007,-0.012,103.0,104.0,101.0,13.4,1505.3,327.9,-0.7,1.8,2470.148,13.33,0.019,291.2
2020-04-10T04:28:02,42.805,6.029,-0.015,0.011,-0.021,103.0,104.0,101.0,13.4,1505.3,325.9,-0.7,1.8,2470.191,13.33,0.018,306.3
2020-04-10T04:31:02,42.805,6.029,-0.026,-0.003,-0.062,104.0,105.0,100.0,13.3,1505.3,327.2,-0.7,1.8,2470.144,13.33,0.026,263.4
2020-04-10T04:34:02,42.805,6.029,-0.015,0.009,-0.039,102.0,103.0,101.0,13.4,1505.3,324.5,-0.7,1.8,2470.196,13.33,0.017,301.0
2020-04-10T04:37:02,42.805,6.029,-0.049,-0.011,-0.074,102.0,106.0,100.0,13.4,1505.3,327.2,-0.7,1.8,2470.212,13.33,0.05,257.3
2020-04-10T04:40:03,42.805,6.029,-0.004,0.003,-0.032,104.0,104.0,99.0,13.4,1505.3,325.6,-0.7,1.8,2470.203,13.33,0.005,306.9
2020-04-10T04:43:03,42.805,6.029,-0.017,-0.005,-0.045,103.0,105.0,100.0,13.3,1505.3,327.8,-0.7,1.8,2470.182,13.33,0.017,253.6
2020-04-10T04:46:03,42.805,6.029,-0.017,0.013,-0.038,103.0,105.0,101.0,13.3,1505.3,326.7,-0.7,1.9,2470.236,13.33,0.021,307.4
2020-04-10T04:49:02,42.805,6.029,-0.026,0.013,-0.057,102.0,104.0,101.0,13.3,1505.3,326.0,-0.7,1.8,2470.172,13.33,0.029,296.6
2020-04-10T04:52:02,42.805,6.029,-0.04,0.025,-0.055,105.0,103.0,101.0,13.4,1505.3,323.6,-0.7,1.8,2470.179,13.33,0.047,302.0
2020-04-10T04:55:03,42.805,6.029,-0.022,0.006,-0.064,103.0,106.0,101.0,13.4,1505.3,326.4,-0.7,1.8,2470.198,13.33,0.022,285.3
2020-04-10T04:58:02,42.805,6.029,-0.018,0.019,-0.04,102.0,106.0,101.0,13.3,1505.3,324.4,-0.7,1.8,2470.191,13.33,0.026,316.5
2020-04-10T05:04:02,42.805,6.029,-0.007,0.001,-0.043,103.0,105.0,101.0,13.3,1505.3,324.2,-0.7,1.9,2470.26,13.31,0.007,278.1
2020-04-10T05:07:02,42.805,6.029,-0.047,-0.005,-0.05,104.0,106.0,102.0,13.4,1505.3,323.2,-0.7,1.8,2470.252,13.31,0.047,263.9
2020-04-10T05:10:02,42.805,6.029,-0.031,0.0,-0.036,104.0,106.0,99.0,13.3,1505.3,326.0,-0.7,1.8,2470.222,13.32,0.03,270.0
2020-04-10T05:13:03,42.805,6.029,-0.04,0.002,-0.029,102.0,104.0,101.0,13.4,1505.3,328.0,-0.7,1.8,2470.196,13.32,0.04,272.9
2020-04-10T05:16:03,42.805,6.029,-0.019,-0.001,-0.069,102.0,106.0,101.0,13.3,1505.3,324.4,-0.7,1.8,2470.236,13.32,0.019,267.0
2020-04-10T05:19:02,42.805,6.029,-0.025,-0.002,-0.023,103.0,105.0,101.0,13.3,1505.3,325.5,-0.7,1.8,2470.263,13.32,0.025,265.4
2020-04-10T05:22:02,42.805,6.029,-0.037,0.023,-0.05,103.0,104.0,101.0,13.3,1505.3,326.4,-0.7,1.8,2470.243,13.32,0.043,301.9
2020-04-10T05:25:03,42.805,6.029,-0.02,0.001,-0.023,102.0,103.0,100.0,13.4,1505.3,325.0,-0.7,1.8,2470.254,13.32,0.02,272.9
2020-04-10T05:28:02,42.805,6.029,-0.035,0.023,-0.075,104.0,108.0,100.0,13.4,1505.3,328.5,-0.7,1.8,2470.233,13.33,0.041,303.3
2020-04-10T05:31:03,42.805,6.029,-0.042,0.008,-0.046,103.0,106.0,101.0,13.3,1505.3,323.5,-0.7,1.8,2470.272,13.32,0.042,280.8
2020-04-10T05:34:03,42.805,6.029,-0.048,0.016,-0.035,103.0,107.0,101.0,13.4,1505.3,325.1,-0.7,1.8,2470.231,13.33,0.05,288.4
2020-04-10T05:37:02,42.805,6.029,-0.036,0.01,-0.065,103.0,108.0,101.0,13.4,1505.3,327.8,-0.7,1.8,2470.237,13.33,0.037,285.5
2020-04-10T05:40:02,42.805,6.029,-0.03,0.011,-0.053,102.0,106.0,101.0,13.4,1505.3,325.3,-0.7,1.8,2470.279,13.33,0.031,290.1
2020-04-10T05:43:02,42.805,6.029,-0.044,-0.004,-0.053,103.0,106.0,101.0,13.3,1505.3,324.1,-0.7,1.8,2470.289,13.33,0.044,264.8
2020-04-10T05:46:03,42.805,6.029,-0.023,0.005,-0.049,103.0,106.0,101.0,13.4,1505.3,327.0,-0.7,1.8,2470.246,13.33,0.023,282.3
2020-04-10T05:49:02,42.805,6.029,-0.036,0.02,-0.044,104.0,107.0,100.0,13.4,1505.3,324.3,-0.7,1.9,2470.246,13.33,0.041,299.1
2020-04-10T05:52:02,42.805,6.029,-0.019,0.008,-0.034,103.0,105.0,100.0,13.4,1505.3,324.7,-0.7,1.8,2470.28,13.33,0.02,292.8
2020-04-10T05:55:02,42.805,6.029,-0.029,0.003,-0.03,104.0,106.0,100.0,13.4,1505.3,326.5,-0.8,1.8,2470.24,13.33,0.029,275.9
2020-04-10T05:58:03,42.805,6.029,0.0,0.002,-0.02,103.0,106.0,101.0,13.4,1505.3,326.8,-0.7,1.9,2470.284,13.33,0.002,0.0
2020-04-10T06:04:02,42.805,6.029,-0.056,0.014,-0.054,104.0,106.0,102.0,13.4,1505.3,324.9,-0.8,1.8,2470.314,13.31,0.057,284.0
2020-04-10T06:07:02,42.805,6.029,-0.06,0.005,-0.044,105.0,106.0,102.0,13.4,1505.3,327.4,-0.7,1.8,2470.308,13.31,0.06,274.8
2020-04-10T06:10:03,42.805,6.029,-0.011,0.007,-0.04,104.0,105.0,100.0,13.4,1505.3,325.6,-0.7,1.8,2470.292,13.32,0.013,302.5
2020-04-10T06:13:03,42.805,6.029,-0.025,0.019,-0.031,104.0,106.0,102.0,13.4,1505.3,323.9,-0.7,1.8,2470.326,13.32,0.031,307.2
2020-04-10T06:16:03,42.805,6.029,-0.012,0.01,-0.005,104.0,109.0,100.0,13.4,1505.3,325.0,-0.7,1.8,2470.309,13.32,0.015,309.8
2020-04-10T06:19:03,42.805,6.029,-0.056,0.017,-0.046,104.0,107.0,100.0,13.4,1505.3,323.9,-0.7,1.8,2470.338,13.32,0.058,286.9
2020-04-10T06:22:02,42.805,6.029,-0.014,0.018,-0.041,103.0,107.0,102.0,13.3,1505.3,326.8,-0.7,1.8,2470.316,13.32,0.022,322.1
2020-04-10T06:25:03,42.805,6.029,0.005,0.002,-0.007,103.0,106.0,102.0,13.3,1505.3,327.0,-0.7,1.9,2470.31,13.33,0.005,68.2
2020-04-10T06:28:02,42.805,6.029,-0.019,0.015,-0.028,104.0,106.0,101.0,13.4,1505.3,326.9,-0.7,1.8,2470.308,13.33,0.024,308.3
2020-04-10T06:31:03,42.805,6.029,-0.012,0.005,-0.04,104.0,105.0,102.0,13.4,1505.3,324.8,-0.7,1.8,2470.308,13.33,0.013,292.6
2020-04-10T06:34:03,42.805,6.029,-0.029,0.008,-0.024,103.0,107.0,101.0,13.4,1505.3,324.2,-0.7,1.9,2470.296,13.33,0.03,285.4
2020-04-10T06:37:02,42.805,6.029,0.001,0.021,-0.028,104.0,107.0,100.0,13.3,1505.3,326.4,-0.7,1.9,2470.359,13.33,0.021,2.7
2020-04-10T06:40:03,42.805,6.029,-0.018,-0.003,-0.058,104.0,106.0,101.0,13.3,1505.3,326.4,-0.7,1.8,2470.329,13.33,0.018,260.5
2020-04-10T06:43:03,42.805,6.029,0.024,0.012,0.037,104.0,106.0,101.0,13.4,1505.3,327.9,-0.7,1.8,2470.34,13.33,0.026,63.4
2020-04-10T06:46:02,42.805,6.029,-0.016,0.014,-0.025,103.0,106.0,102.0,13.4,1505.3,326.9,-0.7,1.8,2470.299,13.33,0.021,311.2
2020-04-10T06:49:03,42.805,6.029,0.0,-0.002,-0.023,104.0,105.0,101.0,13.4,1505.3,327.3,-0.8,1.8,2470.311,13.33,0.002,180.0
2020-04-10T06:52:02,42.805,6.029,-0.021,-0.002,-0.021,105.0,107.0,101.0,13.4,1505.3,324.9,-0.7,1.9,2470.338,13.33,0.021,264.6
2020-04-10T06:55:03,42.805,6.029,-0.035,0.006,-0.037,104.0,105.0,102.0,13.4,1505.3,328.1,-0.7,1.9,2470.341,13.33,0.035,279.7
2020-04-10T06:58:03,42.805,6.029,-0.025,0.005,-0.043,103.0,106.0,102.0,13.3,1505.3,326.3,-0.7,1.8,2470.337,13.33,0.025,281.3
2020-04-10T07:04:02,42.805,6.029,-0.041,0.016,-0.095,104.0,106.0,101.0,13.4,1505.3,323.6,-0.7,1.8,2470.337,13.31,0.044,291.3
2020-04-10T07:07:02,42.805,6.029,-0.014,0.036,-0.003,103.0,106.0,102.0,13.4,1505.3,325.5,-0.7,1.8,2470.391,13.32,0.038,338.8
2020-04-10T07:10:03,42.805,6.029,-0.003,0.007,-0.034,104.0,106.0,101.0,13.4,1505.3,326.5,-0.7,1.9,2470.373,13.32,0.007,336.8
2020-04-10T07:13:03,42.805,6.029,-0.034,0.028,-0.026,104.0,106.0,101.0,13.3,1505.3,325.1,-0.7,1.9,2470.385,13.32,0.044,309.5
2020-04-10T07:16:03,42.805,6.029,-0.008,0.005,-0.03,103.0,106.0,102.0,13.4,1505.3,326.4,-0.7,1.8,2470.357,13.33,0.009,302.0
2020-04-10T07:19:03,42.805,6.029,0.013,0.002,-0.023,104.0,106.0,102.0,13.4,1505.3,324.3,-0.7,1.8,2470.372,13.33,0.013,81.3
2020-04-10T07:22:02,42.805,6.029,0.005,0.034,-0.024,103.0,107.0,101.0,13.4,1505.3,325.3,-0.7,1.9,2470.349,13.33,0.034,8.4
2020-04-10T07:25:03,42.805,6.029,-0.004,0.01,-0.038,104.0,106.0,102.0,13.4,1505.3,324.3,-0.7,1.8,2470.386,13.33,0.01,338.2
2020-04-10T07:28:03,42.805,6.029,0.002,0.031,-0.023,105.0,106.0,101.0,13.4,1505.3,326.6,-0.7,1.9,2470.357,13.33,0.031,3.7
2020-04-10T07:31:03,42.805,6.029,0.006,0.016,-0.007,104.0,105.0,102.0,13.3,1505.3,323.4,-0.7,1.8,2470.372,13.33,0.017,20.6
2020-04-10T07:34:03,42.805,6.029,0.006,0.017,-0.028,104.0,105.0,101.0,13.3,1505.3,322.7,-0.7,1.8,2470.354,13.33,0.018,19.4
2020-04-10T07:37:02,42.805,6.029,-0.019,0.024,-0.039,102.0,106.0,100.0,13.4,1505.3,326.9,-0.7,1.8,2470.37,13.33,0.03,321.6
2020-04-10T07:40:03,42.805,6.029,-0.037,0.027,-0.059,104.0,104.0,101.0,13.4,1505.3,323.3,-0.7,1.8,2470.344,13.33,0.045,306.1
2020-04-10T07:43:03,42.805,6.029,-0.012,0.009,-0.035,104.0,105.0,100.0,13.4,1505.3,328.5,-0.7,1.8,2470.361,13.33,0.015,306.9
2020-04-10T07:46:03,42.805,6.029,0.0,0.026,-0.042,102.0,106.0,101.0,13.4,1505.3,325.2,-0.7,1.8,2470.393,13.33,0.026,0.0
2020-04-10T07:49:03,42.805,6.029,-0.035,0.008,-0.029,104.0,105.0,101.0,13.4,1505.3,326.1,-0.7,1.8,2470.327,13.33,0.035,282.9
2020-04-10T07:52:02,42.805,6.029,-0.011,-0.001,-0.035,104.0,108.0,101.0,13.3,1505.3,323.8,-0.7,1.8,2470.403,13.33,0.011,264.8
2020-04-10T07:55:03,42.805,6.029,-0.026,0.011,-0.039,103.0,105.0,101.0,13.4,1505.3,324.2,-0.7,1.8,2470.338,13.33,0.028,292.9
2020-04-10T07:58:03,42.805,6.029,-0.008,0.026,-0.041,103.0,105.0,101.0,13.3,1505.3,323.0,-0.7,1.9,2470.384,13.33,0.027,342.9
2020-04-10T08:04:02,42.805,6.029,0.0,0.007,-0.06,104.0,107.0,102.0,13.4,1505.3,327.8,-0.8,1.8,2470.403,13.31,0.007,0.0
2020-04-10T08:07:02,42.805,6.029,-0.014,0.004,-0.028,105.0,106.0,101.0,13.3,1505.3,326.1,-0.7,1.9,2470.397,13.32,0.014,285.9
2020-04-10T08:10:02,42.805,6.029,-0.01,0.0,-0.01,106.0,105.0,103.0,13.4,1505.3,327.7,-0.7,1.8,2470.409,13.32,0.01,270.0
2020-04-10T08:13:03,42.805,6.029,-0.036,0.002,-0.043,104.0,107.0,101.0,13.4,1505.3,326.4,-0.7,1.9,2470.401,13.33,0.036,273.2
2020-04-10T08:16:03,42.805,6.029,0.023,0.005,0.009,105.0,107.0,102.0,13.4,1505.3,328.4,-0.7,1.8,2470.343,13.33,0.023,77.7
2020-04-10T08:19:03,42.805,6.029,-0.009,0.014,-0.017,103.0,106.0,101.0,13.3,1505.3,325.0,-0.7,1.8,2470.405,13.33,0.016,327.3
2020-04-10T08:22:02,42.805,6.029,-0.014,-0.015,-0.048,106.0,106.0,101.0,13.4,1505.3,328.2,-0.7,1.8,2470.403,13.33,0.02,223.0
2020-04-10T08:25:03,42.805,6.029,-0.002,0.007,-0.015,104.0,106.0,101.0,13.3,1505.3,325.9,-0.7,1.8,2470.401,13.33,0.007,344.1
2020-04-10T08:28:03,42.805,6.029,-0.025,0.004,0.001,104.0,107.0,103.0,13.3,1505.3,324.9,-0.7,1.9,2470.441,13.33,0.025,279.1
2020-04-10T08:31:03,42.805,6.029,-0.016,0.007,-0.065,103.0,108.0,102.0,13.4,1505.3,325.0,-0.7,1.8,2470.405,13.33,0.017,293.6
2020-04-10T08:34:03,42.805,6.029,-0.018,0.003,-0.038,104.0,107.0,102.0,13.4,1505.3,325.2,-0.7,1.9,2470.413,13.33,0.018,279.5
2020-04-10T08:37:02,42.805,6.029,-0.012,0.005,0.0,103.0,107.0,101.0,13.3,1505.3,325.9,-0.7,1.8,2470.403,13.33,0.013,292.6
2020-04-10T08:40:03,42.805,6.029,-0.003,0.02,-0.028,105.0,106.0,101.0,13.3,1505.3,325.2,-0.7,1.9,2470.4,13.33,0.02,351.5
2020-04-10T08:43:03,42.805,6.029,-0.026,0.025,-0.044,105.0,107.0,100.0,13.3,1505.3,324.9,-0.7,1.8,2470.415,13.33,0.036,313.9
2020-04-10T08:46:03,42.805,6.029,-0.015,-0.008,-0.027,105.0,108.0,101.0,13.3,1505.3,326.8,-0.7,1.9,2470.378,13.33,0.017,241.9
2020-04-10T08:49:03,42.805,6.029,-0.046,0.005,-0.053,106.0,108.0,101.0,13.4,1505.3,325.9,-0.7,1.8,2470.391,13.33,0.046,276.2
2020-04-10T08:52:02,42.805,6.029,-0.009,0.008,-0.059,105.0,107.0,101.0,13.4,1505.3,322.9,-0.7,1.8,2470.346,13.33,0.012,311.6
2020-04-10T08:55:03,42.805,6.029,-0.031,-0.005,-0.027,104.0,106.0,102.0,13.4,1505.3,323.3,-0.7,1.8,2470.375,13.33,0.031,260.8
2020-04-10T08:58:02,42.805,6.029,-0.031,0.012,-0.04,105.0,106.0,103.0,13.4,1505.3,326.9,-0.7,1.8,2470.384,13.33,0.033,291.2
2020-04-10T09:04:02,42.805,6.029,-0.031,0.014,-0.041,105.0,106.0,102.0,13.4,1505.3,325.2,-0.7,1.8,2470.433,13.31,0.034,294.3
2020-04-10T09:07:02,42.805,6.029,-0.011,0.015,-0.056,105.0,107.0,102.0,13.4,1505.3,323.8,-0.7,1.8,2470.421,13.31,0.018,323.7
2020-04-10T09:10:03,42.805,6.029,-0.018,0.02,-0.024,106.0,106.0,103.0,13.3,1505.3,325.6,-0.7,1.9,2470.426,13.32,0.026,318.0
2020-04-10T09:13:03,42.805,6.029,0.0,0.0,-0.015,105.0,106.0,102.0,13.4,1505.3,326.4,-0.7,1.9,2470.386,13.32,0.0,0.0
2020-04-10T09:16:03,42.805,6.029,-0.032,0.014,-0.016,104.0,106.0,101.0,13.4,1505.3,325.8,-0.7,1.9,2470.421,13.32,0.034,293.6
2020-04-10T09:19:03,42.805,6.029,-0.022,-0.006,-0.014,103.0,108.0,103.0,13.4,1505.3,327.0,-0.7,1.8,2470.386,13.32,0.022,254.7
2020-04-10T09:22:02,42.805,6.029,-0.014,0.02,0.002,105.0,106.0,102.0,13.3,1505.3,326.7,-0.7,1.8,2470.381,13.33,0.024,325.0
2020-04-10T09:25:03,42.805,6.029,-0.02,-0.02,-0.053,105.0,106.0,101.0,13.3,1505.3,325.9,-0.7,1.9,2470.394,13.33,0.028,225.0
2020-04-10T09:28:03,42.805,6.029,-0.01,0.01,-0.054,105.0,107.0,101.0,13.4,1505.3,325.3,-0.7,1.8,2470.347,13.33,0.014,315.0
2020-04-10T09:31:03,42.805,6.029,-0.057,0.0,-0.088,104.0,108.0,102.0,13.4,1505.3,326.0,-0.7,1.8,2470.36,13.33,0.057,270.0
2020-04-10T09:34:02,42.805,6.029,-0.017,0.002,-0.039,105.0,106.0,100.0,13.3,1505.3,327.8,-0.7,1.8,2470.381,13.33,0.017,276.7
2020-04-10T09:37:02,42.805,6.029,-0.019,0.004,-0.057,105.0,106.0,101.0,13.4,1505.3,325.3,-0.7,1.8,2470.398,13.32,0.019,281.9
2020-04-10T09:40:03,42.805,6.029,-0.039,0.014,-0.023,105.0,106.0,103.0,13.3,1505.3,327.8,-0.7,1.8,2470.355,13.32,0.041,289.7
2020-04-10T09:43:03,42.805,6.029,-0.041,0.003,-0.033,104.0,107.0,102.0,13.4,1505.3,323.4,-0.7,1.8,2470.373,13.32,0.041,274.2
2020-04-10T09:46:03,42.805,6.029,-0.036,0.002,0.001,105.0,106.0,102.0,13.4,1505.3,324.6,-0.7,1.8,2470.366,13.32,0.036,273.2
2020-04-10T09:49:03,42.805,6.029,-0.039,0.009,-0.061,105.0,106.0,100.0,13.4,1505.3,327.1,-0.7,1.8,2470.382,13.32,0.04,283.0
2020-04-10T09:52:02,42.805,6.029,-0.044,0.004,-0.042,105.0,107.0,101.0,13.3,1505.3,324.4,-0.7,1.8,2470.323,13.32,0.044,275.2
2020-04-10T09:55:03,42.805,6.029,-0.02,-0.003,-0.057,104.0,107.0,101.0,13.4,1505.3,325.8,-0.7,1.8,2470.347,13.32,0.02,261.5